sat.trackr.live / text

‹ back to catalog

OPS 5712 (P/L 153)

NORAD 2874 · 1967-053H

PAYLOAD ACTIVE UNKNOWN

§ Identity

Operator
Country
US
Launch date
1967-05-31
Launch site
AFWTR
Launch vehicle
Mass (kg)
RCS (m²)
0.66

Purposes: military

External: N2YO · Heavens-Above · Gunter

§ Orbital elements

Epoch: 2026-05-25T03:16:53.718240Z

Period
103.09 min
Inclination
69.9717°
Eccentricity
0.0009584
Mean motion
13.96824639 rev/d
Perigee alt
897.8 km
Apogee alt
911.8 km
Semi-major
7,282.9 km
B*
4.9168e-5
RAAN
164.7135°
Arg perigee
237.3546°
Mean anomaly
122.6636°
Rev number
357

§ Raw data

OPS 5712 (P/L 153)1 02874U 67053H   26145.13673285  .00000015  00000+0  49168-4 0  99922 02874  69.9717 164.7135 0009584 237.3546 122.6636 13.96824639  3577

JSON: /api/v1/satellites/2874 · /tle

For live sub-satellite position, see the globe view (requires WebGL).

§ Visibility from observer

Set your observer location to see the next 7 days of passes ≥ 10°. The values pass through the URL so the page stays shareable.

No JS? Fill the form by hand. The geolocation button needs JavaScript.